Zurück zum Katalog

ETIHAD-SAT

AktivKommunikationSSO
NORAD 63226·PAYLOAD·🇦🇪 UAE

Gestartet Mar 15, 2025 von Vandenberg Space Force Base

Loading…

Nächste Überflüge (nächste 24 Stunden)

TLE

AktuellSource: Space-Track

Epoche: Sep 14, 2026, 10:04 UTC

1 63226U 25052S   26257.41991634  .00003043  00000-0  13365-3 0  9993
2 63226  97.3818 148.4539 0005132 169.3838 190.7508 15.22667045 83414

Verfolge ETIHAD-SAT in Echtzeit mit AllMySat

Download on the App Store